Tracking 23731 objects as of 26-Sep-2021
HD Live streaming from Space Station
objects crossing your sky now

STARLINK-2139

Track STARLINK-2139 now!
10-day predictions
STARLINK-2139 is classified as:


NORAD ID: 48554
Int'l Code: 2021-041B
Perigee: 553.5 km
Apogee: 555.2 km
Inclination: 53.1 °
Period: 95.6 minutes
Semi major axis: 6925 km
RCS: Unknown
Launch date: May 15, 2021
Source: United States (US)
Launch site: AIR FORCE EASTERN TEST RANGE (AFETR)
aabbcc
Your satellite tracking list
Your tracking list is empty




NASA's NSSDC Master Catalog

Two Line Element Set (TLE):
1 48554U 21041B   21268.58970634  .00000411  00000-0  46484-4 0  9991
2 48554  53.0581 231.4561 0001276  30.6533 329.4530 15.06400866 20114
Source of the keplerian elements: AFSPC